Location: Aix-en-Ergny
(50.5839°N, 1.9996°E)
Time: 22:43:08
(UTC+00:00)

SKYMED 2 - Pass Details

Date: 23 October 2019
Orbit: 621 x 623 km, 97.9° (Epoch: 21 November)

Event Time Altitude Azimuth Distance (km) Brightness Sun altitude
Rises 04:54:24 0° 165° (SSE) 2,893 7.2 -15.4°
Reaches altitude 10° 04:56:35 10° 165° (SSE) 1,991 6.3 -15.0°
Maximum altitude 05:00:56 87° 256° (WSW) 632 3.5 -14.3°
Drops below altitude 10° 05:05:18 10° 346° (NNW) 2,007 6.0 -13.6°
Sets 05:07:30 0° 346° (NNW) 2,918 6.9 -13.3°
